This site uses a module created by best online poker sites.

BSB police report ending December 19, 2017

Print
"12/18/2017","00:10","217CR0032463","PROWLER","PROWLER","734 W PARK","",""
"12/18/2017","00:31","217CR0032464","T/S","DRIVE WHILE SUSP. OR REVOKED","CASEY AND KAW","",""
"12/18/2017","00:39","217CR0032465","T/S","CRIMINAL CONTEMPT","COBBAN AND MONROE","ARREST(s) MADE",""
"12/18/2017","01:29","217CR0032466","PROWLER","PROWLER","1515 OREGON #802","",""
"12/18/2017","01:40","217CR0032467","MAN WITH A GUN","CRIMINAL MISCHIEF","303 W QUARTZ","",""
"12/18/2017","02:06","217CR0032468","THEFT","THEFT, ALL OTHERS","3390 QUICY","",""
"12/18/2017","02:25","217CR0032469","VANDALISM/CRIMINAL MISCHIEF","VANDALISM/CRIMINAL MISCHIEF","921 W BROADWAY","",""
"12/18/2017","02:40","217CR0032470","MEDICAL - EMERGENCY","MEDICAL - EMERGENCY","1522 ELM","",""
"12/18/2017","03:03","217CR0032471","CIVIL PAPER SERVICE","CIVIL PAPER SERVICE","155 W QUARTZ BSB DETENTION CTR","",""
"12/18/2017","03:52","217CR0032472","DISTURBANCE-NOISE","DISTURBANCE-NOISE","305 N WASHINGTON","",""
"12/18/2017","04:28","217CR0032473","DISTURBANCE","DISTURBANCE","307 1/2 N WASHINGTON","",""
"12/18/2017","04:30","217CR0032474","ANIMAL COMPLAINT","ANIMAL COMPLAINT","3519 GAYLORD","",""
"12/18/2017","05:34","217CR0032475","MEDICAL - EMERGENCY","MEDICAL - EMERGENCY","3300 WHARTON","",""
"12/18/2017","06:52","217CR0032476","HIT AND RUN","HIT AND RUN","GRAND AND HARRISON","",""
"12/18/2017","07:00","217CR0032477","SUSPICIOUS ACTIVITY","SUSPICIOUS ACTIVITY","55 E GRANITE ST","",""
"12/18/2017","07:17","217CR0032478","T/S","DRIVE WHILE SUSP. OR REVOKED","MONTANA ST AND CHULA","",""
"12/18/2017","08:03","217CR0032479","RESTRAINING ORDER VIOLATION","RESTRAINING ORDER VIOLATION","************","",""
"12/18/2017","08:19","217CR0032480","ACCIDENT","ACCIDENT","3000 CONTINENTAL DR","",""
"12/18/2017","08:44","217CR0032481","OPEN BUILDING","OPEN BUILDING","1823 GRAND AVE","",""
"12/18/2017","08:45","217CR0032482","INFORMATION ONLY","INFORMATION ONLY","13 EARTH LANE","",""
"12/18/2017","09:07","217CR0032483","THEFT","THEFT, ALL OTHERS","2032 WALL","",""
"12/18/2017","09:17","217CR0032484","HARASSMENT","HARASSMENT","1618 ELM ST","",""
"12/18/2017","09:55","217CR0032485","MEDICAL - EMERGENCY","MEDICAL - EMERGENCY","3415 SAINT ANN ST","",""
"12/18/2017","10:05","217CR0032486","T/S","T/S","CONTINENTAL AND WHARTON","",""
"12/18/2017","10:18","217CR0032488","DISTURBANCE","DISTURBANCE","699 CENTENNIAL","",""
"12/18/2017","11:01","217CR0032489","CITIZEN AID","CITIZEN AID","3400 HILL LEGION OASIS","",""
"12/18/2017","11:07","217CR0032490","DISTURBANCE","DISTURBANCE","2025 APEX","",""
"12/18/2017","11:09","217CR0032491","FOUND PROPERTY","FOUND PROPERTY","************","",""
"12/18/2017","11:22","217CR0032492","VANDALISM/CRIMINAL MISCHIEF","VANDALISM/CRIMINAL MISCHIEF","225 N ALASKA ST","",""
"12/18/2017","11:37","217CR0032493","WANTED PERSON","WANTED PERSON","************","",""
"12/18/2017","11:43","217CR0032494","RESTRAINING ORDER VIOLATION","VIOLATION OF PROTECTION ORDER","2727 YALE","",""
"12/18/2017","12:03","217CR0032495","MEDICAL - EMERGENCY","MEDICAL - EMERGENCY","2975 WASHOE ST","",""
"12/18/2017","12:13","217CR0032496","T/S","T/S @ MONTANA AND PARK ST","MONTANA AND PARK ST","",""
"12/18/2017","12:18","217CR0032497","FIRE - STRUCTURE","FIRE - STRUCTURE","2720 ARGYLE","",""
"12/18/2017","12:46","217CR0032498","DISTURBANCE","RESISTING ARREST","PARK ST AND MAIN ST","ARREST(s) MADE",""
"12/18/2017","12:51","217CR0032499","THEFT","BURGLARY, RESIDENCE","5569 MOULTON RESERVOIR RD","",""
"12/18/2017","12:54","217CR0032500","MEDICAL - EMERGENCY","MEDICAL - EMERGENCY","1100 W SILVER","",""
"12/18/2017","13:12","217CR0032501","UNWANTED PERSON","UNWANTED PERSON","************","",""
"12/18/2017","13:25","217CR0032502","SUSPICIOUS ACTIVITY","SUSPICIOUS ACTIVITY","200 BLK W PARK","",""
"12/18/2017","13:28","217CR0032503","CITIZEN AID","CITIZEN AID","1824 FLORIDA AVE","",""
"12/18/2017","13:42","217CR0032505","THEFT","THEFT","225 N ALASKA ST","",""
"12/18/2017","13:45","217CR0032506","UNWANTED PERSON","CRIMINAL TRESPASS TO PROPERTY","2711 HARRISON","ARREST(s) MADE",""
"12/18/2017","13:49","217CR0032507","VANDALISM/CRIMINAL MISCHIEF","CRIMINAL MISCHIEF","455 VIENNA","",""
"12/18/2017","14:00","217CR0032508","ALARM - FIRE","ALARM - FIRE","2300 ARGYLE","",""
"12/18/2017","14:11","217CR0032510","THEFT","THEFT, ALL OTHERS","2129 WALL ST","",""
"12/18/2017","14:15","217CR0032511","ABANDONED VEHICLE","ABANDONED VEHICLE","2132 JOHNS","",""
"12/18/2017","14:24","217CR0032512","CIVIL STANDBY","CIVIL STANDBY","225 N ALASKA ST","",""
"12/18/2017","14:43","217CR0032513","SUSPICIOUS ACTIVITY","SUSPICIOUS ACTIVITY","2700 BLK OF HARRISON","",""
"12/18/2017","14:44","217CR0032514","THEFT","THEFT","225 N ALASKA ST","",""
"12/18/2017","14:57","217CR0032515","HARASSMENT","HARASSMENT","225 N ALASKA ST","",""
"12/18/2017","15:10","217CR0032516","TRAFFIC HAZARD","TRAFFIC HAZARD","FRONT ST AND MARYLAND ST","",""
"12/18/2017","15:12","217CR0032517","DISTURBANCE","PFMA - MINOR INJ/PHYSICAL CONT","323 N JACKSON","ARREST(s) MADE",""
"12/18/2017","15:18","217CR0032518","SUSPICIOUS ACTIVITY","SUSPICIOUS ACTIVITY","2929 HARRISON AVE","",""
"12/18/2017","15:39","217CR0032519","T/S","T/S","DEWEY BLVD AND LEXINGTON AVE","",""
"12/18/2017","15:40","217CR0032520","ACCIDENT","ACCIDENT","3103 HARRISON AVE","",""
"12/18/2017","15:57","217CR0032521","CIVIL STANDBY","CIVIL STANDBY","225 N ALASKA ST","",""
"12/18/2017","15:58","217CR0032522","THEFT","THEFT","800 W PLATINUM MT VISTA CLINIC","",""
"12/18/2017","16:08","217CR0032523","SUSPICIOUS ACTIVITY","SUSPICIOUS ACTIVITY","1529 A STREET","",""
"12/18/2017","16:29","217CR0032524","FIRE- GAS ODOR","FIRE- GAS ODOR","699 CENTENIAL BSB ANIMAL SHEL","",""
"12/18/2017","16:45","217CR0032525","SUSPICIOUS ACTIVITY","SUSPICIOUS ACTIVITY","700 BLK S MAIN","",""
"12/18/2017","16:52","217CR0032526","THEFT","THEFT, SHOPLIFT","3901 HARRISON AVE","",""
"12/18/2017","16:53","217CR0032527","HARASSMENT","HARASSMENT","225 N ALASKA ST","",""
"12/18/2017","17:10","217CR0032528","CIVIL STANDBY","CIVIL STANDBY","225 N ALASKA ST","",""
"12/18/2017","18:08","217CR0032529","T/S","T/S @ 700 BLK S COLORADO","700 BLK S COLORADO","",""
"12/18/2017","18:22","217CR0032530","INFORMATION ONLY","INFORMATION ONLY","225 N ALASKA ST","",""
"12/18/2017","18:25","217CR0032531","ACCIDENT","ACCIDENT","3099 HARRISON","",""
"12/18/2017","18:30","217CR0032532","FIRE - OTHER","FIRE - OTHER","3300 HARRISON AVE","",""
"12/18/2017","18:41","217CR0032533","ATL","DUI DRUGS OR ALCOHOL","AMHERST ST AND HARRISON AVE","ARREST(s) MADE",""
"12/18/2017","19:36","217CR0032534","T/S","T/S @ MADISON AND SHIELDS","MADISON AND SHIELDS","",""
"12/18/2017","20:02","217CR0032535","SUSPICIOUS ACTIVITY","SUSPICIOUS ACTIVITY","401 S WYOMING ST","",""
"12/18/2017","20:45","217CR0032536","MAN WITH A GUN","MAN WITH A GUN","************","",""
"12/18/2017","20:47","217CR0032537","LED BUSINESS","LED BUSINESS","155 W QUARTZ","",""
"12/18/2017","20:54","217CR0032538","ASSAULT","ASSAULT, SIMPLE","531 S MONTANA","",""
"12/18/2017","21:23","217CR0032539","T/S","T/S","PARK ST AND ARIZONA ST","",""
"12/18/2017","21:23","217CR0032540","ASSIST OTHER AGENCY","ASSIST OTHER AGENCY","2621 WASHOE ST","",""
"12/18/2017","21:34","217CR0032541","MEDICAL - EMERGENCY","MEDICAL - EMERGENCY","3901 HARRISON AVE","",""
"12/18/2017","21:49","217CR0032542","MEDICAL - EMERGENCY","MEDICAL - EMERGENCY","201 HOBSON #41","",""
"12/18/2017","22:13","217CR0032543","MEDICAL - EMERGENCY","MEDICAL - EMERGENCY","541 S MAIN SPUD MCGEES","",""
"12/18/2017","22:17","217CR0032544","LOST OR STOLEN PROPERTY","LOST OR STOLEN PROPERTY","2800 QUINCY","",""
"12/18/2017","22:19","217CR0032545","SUSPICIOUS ACTIVITY","SUSPICIOUS ACTIVITY","1221 DEWEY BLVD","",""
"12/18/2017","23:35","217CR0032547","SUSPICIOUS ACTIVITY","SUSPICIOUS ACTIVITY","56 E MERCURY/BLU RANGE","",""
"12/18/2017","23:50","217CR0032548","ASSAULT","ASSAULT","************","",""
"12/19/2017","00:29","217CR0032549","T/S","T/S","2939 HARRISON TACO BELL","",""
"12/19/2017","00:34","217CR0032550","T/S","T/S @ BUSCH AND GARLAND","BUSCH AND GARLAND","",""
"12/19/2017","01:24","217CR0032551","T/S","T/S","ROWE RD AND HOLMES RD","",""
"12/19/2017","01:53","217CR0032552","MEDICAL - EMERGENCY","MEDICAL - EMERGENCY","2821 EDWARDS","",""
"12/19/2017","02:20","217CR0032553","ACCIDENT","ACCIDENT","1000 GRIZZLY TR","",""
"12/19/2017","02:44","217CR0032554","T/S","T/S","S MONTANA AND HANSON","",""
"12/19/2017","03:27","217CR0032555","ALARM - BURGLARY","ALARM - BURGLARY","************","",""
"12/19/2017","05:12","217CR0032556","SUSPICIOUS ACTIVITY","SUSPICIOUS ACTIVITY","ARIZONA AND PLATINUM","",""
"12/19/2017","06:48","217CR0032557","STOLEN VEHICLE","STOLEN VEHICLE","1812 ADAMS AVE","",""
 
Wednesday the 21st. Affiliate Marketing.
Copyright 2012

©